Location: ?????
(33.6267°N, 35.4675°E)
Time: 20:42:06
(UTC+00:00)

COBE Rocket - Pass Details

Date: 12 November 2019
Orbit: 679 x 783 km, 97.1° (Epoch: 07 December)

Event Time Altitude Azimuth Distance (km) Brightness Sun altitude
Rises 14:53:53 0° 17° (NNE) 3,128 6.8 -4.0°
Reaches altitude 10° 14:56:15 10° 22° (NNE) 2,189 6.0 -4.5°
Maximum altitude 15:00:55 52° 98° (E) 865 4.0 -5.4°
Drops below altitude 10° 15:05:27 10° 175° (S) 2,126 6.5 -6.3°
Sets 15:07:43 0° 180° (S) 3,030 7.3 -6.8°
